This is the latest recevied weather packets stored in our database for station/object IW3HBX-13. If no packets are shown the sender has not sent any weather packets the latest 1 day(s).
| Time | Temp. | Humidity | Pressure | Rain* | Wind** | Luminosity | Snow |
|---|---|---|---|---|---|---|---|
| 1836274504 | 16.67° C | 92% | 1025.1 hPa | 0 mm | 0 m/s | 0 W/m² | - |
| 1836274471 | 16.67° C | 92% | 1025.1 hPa | 0 mm | 0 m/s | 0 W/m² | - |
| 1836274142 | 17.22° C | 92% | 1025.1 hPa | 0 mm | 0 m/s | 0 W/m² | - |
| 1836274111 | 16.67° C | 92% | 1025.1 hPa | 0 mm | 0 m/s | 0 W/m² | - |
| 1778008327 | 13.89° C | 93% | 1014 hPa | 0 mm | 0.89 m/s, 48° | 0 W/m² | - |
| 1778007967 | 13.89° C | 93% | 1014 hPa | 0 mm | 0.45 m/s, 52° | 0 W/m² | - |
| 1778007249 | 13.89° C | 93% | 1014 hPa | 0 mm | 0.45 m/s, 9° | 0 W/m² | - |
| 1778006888 | 13.89° C | 93% | 1014 hPa | 0 mm | 0.89 m/s, 329° | 0 W/m² | - |
| 1778006529 | 13.89° C | 93% | 1014 hPa | 0 mm | 0.45 m/s, 329° | 0 W/m² | - |
| 1778006167 | 13.89° C | 93% | 1013.9 hPa | 0 mm | 0.89 m/s, 32° | 0 W/m² | - |
| 1778005447 | 13.89° C | 93% | 1013.8 hPa | 0 mm | 0 m/s | 1 W/m² | - |
| 1778005087 | 13.89° C | 93% | 1013.7 hPa | 0 mm | 0.45 m/s, 24° | 2 W/m² | - |
| 1778004727 | 13.89° C | 93% | 1013.6 hPa | 0 mm | 0.45 m/s, 18° | 3 W/m² | - |
| 1778004367 | 13.89° C | 93% | 1013.7 hPa | 0 mm | 0.45 m/s, 62° | 4 W/m² | - |
| 1778003649 | 13.89° C | 93% | 1013.6 hPa | 0 mm | 1.34 m/s, 66° | 5 W/m² | - |
| 1778003290 | 13.89° C | 93% | 1013.7 hPa | 0 mm | 1.34 m/s, 82° | 5 W/m² | - |
| 1778002928 | 13.89° C | 93% | 1013.7 hPa | 0 mm | 0.89 m/s, 360° | 4 W/m² | - |
| 1778002569 | 13.89° C | 93% | 1013.7 hPa | 0 mm | 1.34 m/s, 37° | 5 W/m² | - |
| 1778001847 | 13.89° C | 93% | 1013.7 hPa | 0 mm | 1.34 m/s, 66° | 14 W/m² | - |
| 1778001487 | 13.89° C | 93% | 1013.6 hPa | 0 mm | 0.89 m/s, 66° | 10 W/m² | - |
| 1778001130 | 13.89° C | 93% | 1013.6 hPa | 0 mm | 1.34 m/s, 70° | 7 W/m² | - |
| 1778000767 | 13.89° C | 93% | 1013.7 hPa | 0 mm | 1.79 m/s, 70° | 9 W/m² | - |
| 1778000047 | 13.89° C | 94% | 1013.6 hPa | 0 mm | 1.34 m/s, 77° | 10 W/m² | - |
| 1777999687 | 13.89° C | 94% | 1013.7 hPa | 0 mm | 1.79 m/s, 75° | 15 W/m² | - |
| 1777999327 | 13.89° C | 94% | 1013.7 hPa | 0 mm | 0.89 m/s, 64° | 17 W/m² | - |
* Rain latest hour (hover to see other rain measurements)
** Current wind speed in m/s (hover to see current wind gust speed)